Regional Weather Roundup
Issued by NWS

Home | Current Version | Previous Version | Graphics & Text | Print | Product List | Glossary Off
Versions: 1 2 3 4 5 6 7 8 9 10 11 12 13 14 15 16 17 18 19 20 21 22 23 24 25 26 27 28 29 30 31 32 33 34 35 36 37 38 39 40 41 42 43 44 45 46 47 48 49 50

245
ASUS43 KMKX 110600
RWRWI

WISCONSIN REGIONAL WEATHER ROUNDUP
NATIONAL WEATHER SERVICE MILWAUKEE/SULLIVAN WI
1200 AM CST THU FEB 11 2016

NOTE: "FAIR" INDICATES FEW OR NO CLOUDS BELOW 12,000 FEET WITH NO
SIGNIFICANT WEATHER AND/OR OBSTRUCTIONS TO VISIBILITY.

WIZ001-002-006>008-014>016-023>028-110700-
NORTHWEST WISCONSIN

CITY           SKY/WX    TMP DP  RH WIND       PRES   REMARKS
SUPERIOR ARPT  PTCLDY    -1 -10  65 NW6       30.27R WCI -13
ASHLAND        CLEAR     -5  -9  83 W5        30.22S WCI -16
6HR MIN TEMP:  -6; 6HR MAX TEMP:   3;

HAYWARD        CLEAR    -12 -16  82 CALM      30.20R
6HR MIN TEMP: -12; 6HR MAX TEMP:   7;

SIREN          CLEAR     -7 -12  78 CALM      30.25R
CUMBERLAND     CLEAR      1  -9  60 NW6       30.21R WCI -10
RICE LAKE      CLEAR     -3  -8  77 CALM      30.23R
CHETEK         CLEAR     -3  -6  86 MISG      30.22R
LADYSMITH      CLOUDY    -8 -12  83 CALM      30.20S
6HR MIN TEMP: -10; 6HR MAX TEMP:   9;

EAU CLAIRE     NOT AVBL
MENOMONIE      CLEAR      4  -5  63 W6        30.25R WCI  -6
6HR MIN TEMP:   4; 6HR MAX TEMP:   8;

NEW RICHMOND   CLEAR      3  -5  69 W7        30.26R WCI  -9
OSCEOLA        CLEAR      2  -4  75 CALM      30.29S
$$

WIZ003>005-009-010-017-018-110700-
NORTH CENTRAL WISCONSIN

CITY           SKY/WX    TMP DP  RH WIND       PRES   REMARKS
MANITOWISH WTR FLURRIES   4  -1  81 NW7       30.09S WCI  -8
ARBOR VITAE    CLEAR      1  -3  83 CALM      30.10R
WOODRUFF       CLEAR      1  -3  83 CALM      30.10R
RHINELANDER    CLEAR      0  -6  76 W6        30.09R WCI -12
6HR MIN TEMP:  -1; 6HR MAX TEMP:   7;

EAGLE RIVER    CLOUDY     5  -2  74 W7        30.08R WCI  -7
LAND O LAKES   CLOUDY     7   2  82 NW5       30.07S WCI  -2
PHILLIPS       CLOUDY    -8 -12  82 CALM      30.14R
TOMAHAWK       MOCLDY     2  -5  74 W5        30.12F WCI  -8
MEDFORD        CLEAR     -3  -6  84 NW3       30.13S
MERRILL        PTCLDY     5  -3  68 N5        30.13F WCI  -4
$$

WIZ029-030-035-036-043>047-110700-
CENTRAL WISCONSIN

CITY           SKY/WX    TMP DP  RH WIND       PRES   REMARKS
WAUSAU         MOCLDY     3  -4  72 NW6       30.14R WCI  -8
6HR MIN TEMP:   2; 6HR MAX TEMP:  11;

MOSINEE        CLEAR      1  -4  78 CALM      30.16R
MARSHFIELD     CLEAR      0  -8  69 NW7       30.16R WCI -13
6HR MIN TEMP:  -2; 6HR MAX TEMP:   8;

STEVENS POINT  CLEAR      1  -6  71 CALM      30.17R
WAUPACA        PTCLDY     6  -5  61 NW5       30.19R WCI  -3
WAUTOMA        NOT AVBL
WISC RAPIDS    CLEAR     -2  -8  76 W3        30.21R
6HR MIN TEMP:  -3; 6HR MAX TEMP:   8;

CAMP DOUGLAS   MOCLDY    -1  -4  85 W6        30.21R WCI -12
6HR MIN TEMP:  -3; 6HR MAX TEMP:   8;

$$

WIZ011>013-019>022-031-037>040-048>050-110700-
NORTHEAST WISCONSIN

CITY           SKY/WX    TMP DP  RH WIND       PRES   REMARKS
ANTIGO         MOCLDY     5  -3  69 NW8       30.09F WCI  -9
SHAWANO        MOCLDY     6  -4  63 SW3       30.17S
6HR MIN TEMP:   5; 6HR MAX TEMP:  14;

OCONTO         PTCLDY     1  -6  72 CALM      30.17S
STURGEON BAY   CLEAR      3  -6  66 NW5       30.15F WCI  -6
6HR MIN TEMP:   3; 6HR MAX TEMP:   9;

GREEN BAY      CLOUDY     1  -7  68 W6        30.18R WCI -10
6HR MIN TEMP:  -2; 6HR MAX TEMP:   9;

MANITOWOC      NOT AVBL
APPLETON       CLEAR      5  -8  56 NW5       30.15R WCI  -4
CLINTONVILLE   MOCLDY     5  -6  61 NW5       30.18R WCI  -4
OSHKOSH        CLEAR      4  -6  63 NW3       30.18R
6HR MIN TEMP:   3; 6HR MAX TEMP:  10;

$$

WIZ032>034-041-042-053>061-110700-
SOUTHWEST WISCONSIN

CITY           SKY/WX    TMP DP  RH WIND       PRES   REMARKS
LA CROSSE      MOCLDY     7  -3  64 CALM      30.26R
6HR MIN TEMP:   3; 6HR MAX TEMP:   8;

SPARTA         CLOUDY    -1  -6  81 CALM      30.24R
VIROQUA        MOCLDY     3  -4  70 NW5       30.18R WCI  -6
BOSCOBEL       CLOUDY     8  -2  63 VRB3      30.25R
6HR MIN TEMP:   4; 6HR MAX TEMP:  12;

PRAIRIE DU CHI CLOUDY    11  -2  55 NW6       30.24S WCI   2
PLATTEVILLE    CLOUDY     9   0  67 N9        30.18S WCI  -4
$$

WIZ056-057-062-063-064-067-068-110700-
SOUTH CENTRAL WISCONSIN

CITY           SKY/WX    TMP DP  RH WIND       PRES   REMARKS
REEDSBURG      PTCLDY     5  -3  69 W3        30.20R
BARABOO/DELLS  CLEAR      5  -5  64 NW5       30.19R WCI  -4
LONE ROCK      NOT AVBL
MINERAL POINT  CLOUDY     9   0  66 NW6       30.17S WCI  -1
MADISON        CLEAR      7  -3  64 NW7       30.18R WCI  -5
6HR MIN TEMP:   5; 6HR MAX TEMP:  11;

MIDDLETON      PTCLDY     9   0  66 NW5       30.19R WCI   0
WATERTOWN      CLEAR      7  -1  67 NW3       30.17R
MONROE         CLEAR      9   1  72 NW5       30.15S WCI   0
JANESVILLE     CLOUDY    10   3  72 NW3       30.18S
$$

WIZ051-052-058>065-066-070>072-110700-
SOUTHEAST WISCONSIN

CITY           SKY/WX    TMP DP  RH WIND       PRES   REMARKS
MILWAUKEE      MOCLDY     9  -2  61 NW10      30.17R WCI  -5
6HR MIN TEMP:   9; 6HR MAX TEMP:  12;

WAUKESHA       CLEAR      3  -4  72 W5        30.16S WCI  -6
MILWAUKEE/TIMM CLEAR      7  -4  61 NW7       30.18R WCI  -5
RACINE         CLEAR      9  -3  58 NW8       30.18R WCI  -3
6HR MIN TEMP:   8; 6HR MAX TEMP:  12;

BURLINGTON     CLEAR      5  -2  71 W3        30.17R
KENOSHA        CLEAR      8  -1  66 NW8       30.16S WCI  -4
6HR MIN TEMP:   3; 6HR MAX TEMP:  12;

FOND DU LAC    CLEAR      3  -6  66 NW7       30.18R WCI  -9
6HR MIN TEMP:   3; 6HR MAX TEMP:   9;

SHEBOYGAN      CLEAR      4  -6  63 NW6       30.17R WCI  -7
6HR MIN TEMP:   0; 6HR MAX TEMP:   9;

WEST BEND      CLEAR      5  -4  66 CALM      30.16R
JUNEAU         CLEAR      4  -4  69 NW6       30.18R WCI  -7
$$

LSZ147-162-110700-
LAKE SUPERIOR

STATION/POSITION TIME  TEMP    WIND        PRES    WAVE
                       AIR SEA DIR/SP/G            HT/PER
                 (UTC) (F)     (DEG/KT/KT) (MB)    (FT/S)
DEVILS ISLAND    0500    9     340/ 19/ 23 1024.8S
PORT WING        0500    8      10/ 10/ 15 1024.0R
SAXON HARBOR     0540   11                 1022.7R
$$

LMZ867-665-643>646-110700-
LAKE MICHIGAN

STATION/POSITION TIME  TEMP    WIND        PRES    WAVE
                       AIR SEA DIR/SP/G            HT/PER
                 (UTC) (F)     (DEG/KT/KT) (MB)    (FT/S)
CHAMBERS ISLAND  0500    9     280/  7/ 13 1020.3R
ALGOMA LAKESHORE 0456          310/  4/  8   N/A
KEWAUNEE LAKESHO 0500    5     300/  7/ 10 1020.2R
SHEBOYGAN LAKESH 0500    9     320/ 12/ 15 1023.1R
PORT WASHINGTON  0500    8     300/  5/  9 1022.7R
MILWAUKEE LAKESH 0510   11     300/ 11/ 13   N/A
KENOSHA   LAKESH 0500   10     280/  9/ 11 1021.3S
$$

TC  - TEMPERATURE IN CELSIUS
VSB - VISIBILITY IN STATUTE MILES
WCI - WIND CHILL INDEX
HX  - HEAT INDEX





USA.gov is the U.S. government's official web portal to all federal, state and local government web resources and services.